Regional Weather Roundup
Issued by NWS

Home | Current Version | Previous Version | Graphics & Text | Print | Product List | Glossary On
Versions: 1 2 3 4 5 6 7 8 9 10 11 12 13 14 15 16 17 18 19 20 21 22 23 24 25 26 27 28 29 30 31 32 33 34 35 36 37 38 39 40 41 42 43 44 45 46 47 48 49 50
000
ASUS43 KBIS 241120
RWRND

NORTH DAKOTA REGIONAL WEATHER ROUNDUP
NATIONAL WEATHER SERVICE BISMARCK ND
600 AM CDT FRI OCT 24 2014

NOTE: "FAIR" INDICATES FEW OR NO CLOUDS BELOW 12,000 FEET WITH NO
SIGNIFICANT WEATHER AND/OR OBSTRUCTIONS TO VISIBILITY.


NDZ001>003-009>011-017-241200-
NORTHWEST NORTH DAKOTA

CITY           SKY/WX    TMP DP  RH WIND       PRES   REMARKS
WILLISTON      CLEAR     42  35  76 CALM      29.81R
MINOT          PTCLDY    48  34  58 SW10      29.75S
MINOT AFB      PTCLDY    48  37  64 SW9       29.74S
$$

NDZ018>021-031>035-040>046-241200-
SOUTHWEST NORTH DAKOTA

CITY           SKY/WX    TMP DP  RH WIND       PRES   REMARKS
BISMARCK       CLOUDY    41  32  70 CALM      29.83R
DICKINSON      MOCLDY    40  31  70 SW5       29.83R
GARRISON         N/A     44  38  79 CALM      29.79R
HETTINGER ARPT CLOUDY    43  28  55 CALM      29.88R
$$

NDZ004>008-012>016-024-026-027-054-241200-
NORTHEAST NORTH DAKOTA

CITY           SKY/WX    TMP DP  RH WIND       PRES   REMARKS
GRAND FORKS    PTCLDY    40  35  83 S7        29.74S
GRND FRKS AFB  PTCLDY    47  37  69 W6        29.75R
DEVILS LAKE    CLEAR     48  36  61 SW9       29.74F
$$

NDZ022-023-025-028>030-036>039-047>053-241200-
SOUTHEAST NORTH DAKOTA

CITY           SKY/WX    TMP DP  RH WIND       PRES   REMARKS
FARGO          MOCLDY    47  41  80 S6        29.79S
JAMESTOWN      CLOUDY    41  35  79 SW3       29.80R
$$




USA.gov is the U.S. government's official web portal to all federal, state and local government web resources and services.